Location: Podbrezov�
(48.8093°N, 19.5260°E)
Time: 19:34:57
(UTC+00:00)

Daily predictions for brighter satellites

Satellite Brightness Start Highest point End
(mag) Time Altitude Azimuth Time Altitude Azimuth Time Altitude Azimuth
Cosmos 1980 Rocket 2.6 18:58:13 10° NNW 19:03:43 51° NE 19:09:11 10° SE
Cosmos 44 Rocket 3.9 18:59:07 10° S 19:03:55 39° ESE 19:08:46 10° NE
OBJECT-B 3.2 19:02:47 10° SSW 19:05:26 23° W 19:08:06 10° NW
Cosmos 2098 Rocket 3.6 19:06:25 10° SE 19:08:48 22° E 19:11:25 10° NE
USA 234 4.2 19:03:38 10° E 19:09:50 46° N 19:16:02 10° WNW
Cosmos 2279 Rocket 4.1 19:03:35 10° N 19:09:50 89° E 19:16:02 10° S
Cosmos 2322 Rocket 4.1 19:06:59 10° N 19:11:02 19° NE 19:15:02 10° E
SAR-Lupe-4 4.4 19:09:08 10° N 19:12:40 55° WNW 19:16:11 10° SSW
IGS 5A 3.5 19:10:29 10° SSE 19:14:38 87° W 19:18:49 10° NNW
SPOT 5 3.8 19:16:42 10° ESE 19:20:21 27° ENE 19:24:03 10° N
SPOT 1/Viking Rocket 3.7 19:15:37 10° SSE 19:20:44 65° ENE 19:25:55 10° N
Cosmos 1825 2.8 19:17:13 10° SSW 19:20:54 60° W 19:24:38 10° N
BREEZE-M DEB (TANK) 2.1 19:18:48 10° WNW 19:21:29 77° SSW 19:27:45 10° ESE
Cosmos 1953 Rocket 4.5 19:19:18 10° SSW 19:23:41 53° WNW 19:28:06 10° N
Cosmos 371 Rocket 3.8 19:22:38 10° NNW 19:27:19 48° ENE 19:31:42 11° SE
Ariane Rocket 3.9 19:22:45 10° S 19:27:39 48° W 19:32:35 10° NNW
MetOp-B 4.2 19:23:25 10° SSE 19:28:46 85° ENE 19:34:10 10° NNW
Cosmos 2151 3.8 19:29:14 10° SSE 19:32:59 32° E 19:36:46 10° NNE
Cosmos 2058 3.4 19:31:09 10° SSW 19:35:18 66° WNW 19:39:30 10° N
Cosmos 783 Rocket 4.5 19:30:13 10° SSW 19:35:24 82° ESE 19:40:39 10° NNE
ISS -3.3 19:33:05 10° WNW 19:36:28 62° NNE 19:39:49 10° E
SL-16 R/B 3.4 19:32:04 10° NNW 19:37:08 32° NE 19:42:10 10° ESE
Terra 2.9 19:33:35 11° SE 19:37:28 31° ENE 19:41:39 10° N
Nadezhda 4 Rocket 4.0 19:35:38 10° S 19:41:43 69° E 19:47:55 10° NNE
Cosmos 1842 Rocket 4.1 19:38:25 10° NNW 19:42:52 61° W 19:47:16 10° S
Gblst 52 Del rocket 4.5 19:37:48 10° WSW 19:43:39 84° NNW 19:50:19 10° ENE
USA 276 2.4 19:41:26 10° W 19:44:35 68° N 19:47:44 10° E
GP-B 3.7 19:41:50 10° NNE 19:46:00 39° E 19:49:20 15° SSE
Cosmos 1633 2.5 19:44:12 10° S 19:47:47 83° ESE 19:51:26 10° N
Cosmos 1151 Rocket 4.4 19:46:44 10° NNE 19:50:24 26° ENE 19:53:06 15° ESE
Cosmos 1271 Rocket 3.6 19:48:03 10° N 19:51:47 37° ENE 19:54:22 17° SE
Cosmos 1076 Rocket 3.5 19:48:19 10° S 19:52:39 86° E 19:57:02 10° N
NOSS 3-4 (A) 4.2 19:49:55 10° WSW 19:55:41 57° NW 20:02:01 10° NE
NOSS 3-4 (C) 4.2 19:50:01 10° WSW 19:55:47 57° NW 20:02:07 10° NE
ERS-2 4.2 19:54:15 10° N 19:57:28 30° WNW 20:00:41 10° SW
RESURS DK-1 2.3 19:55:44 10° SSW 19:59:52 75° ESE 20:04:03 10° NNE
Cosmos 1697 Rocket 3.9 19:55:57 10° NW 20:01:06 37° WSW 20:06:14 10° S
Cosmos 773 Rocket 4.2 19:56:16 10° SSW 20:01:30 76° WNW 20:06:41 10° NNE
Cosmos 332 Rocket 4.0 19:58:08 10° NNW 20:02:59 61° ENE 20:06:27 19° SE
ERBS 3.4 20:00:53 10° WNW 20:03:48 31° SW 20:05:29 19° S
ATLAS 2AS CENTAUR R/B 3.1 19:56:41 10° SW 20:04:38 84° NW 20:12:23 10° NE
Resurs 01 Rocket 3.4 20:04:05 10° SSW 20:07:53 28° W 20:11:44 10° NW
Cosmos 2278 3.9 20:05:25 10° NNW 20:11:02 68° WSW 20:15:27 17° SSE
Cosmos 2082 Rocket 2.3 20:06:20 10° SSW 20:11:58 82° WNW 20:17:41 10° NNE
Cosmos 1933 3.3 20:08:18 10° N 20:12:24 82° E 20:15:05 20° SSE
Cosmos 1833 Rocket 3.9 20:08:56 10° SW 20:14:20 44° NW 20:19:44 10° NNE
ATLAS 5 CENTAUR R/B 4.4 20:12:15 10° NNW 20:15:38 18° NNE 20:19:22 10° ENE
USA 267 3.5 20:11:07 10° ENE 20:17:19 43° SE 20:23:28 10° SSW
ATLAS 3B R/B 2.9 20:12:42 10° NW 20:19:45 72° SW 20:25:11 19° SSE
Cosmos 2333 Rocket 4.1 20:18:02 10° N 20:22:12 20° NE 20:26:20 10° E
ERS-1 Rocket 3.0 20:20:49 18° S 20:24:36 77° WSW 20:29:39 10° NNW
Cosmos 1680 Rocket 4.3 20:23:11 22° SSE 20:25:43 34° ESE 20:30:25 10° NE
Cosmos 2360 Rocket 3.3 20:21:18 10° NNW 20:26:24 34° NE 20:30:27 15° ESE
Spot 2 Rocket 4.1 20:23:40 13° S 20:28:04 52° W 20:33:04 10° NNW
BREEZE-M DEB (TANK) 3.9 20:24:06 10° SW 20:28:23 71° SSE 20:45:46 10° ENE
CZ-4B DEB 4.3 20:29:15 35° SE 20:30:21 62° ENE 20:33:29 10° N
Gbstr 26 Del rocket 2.7 20:26:41 10° WNW 20:30:28 81° NNE 20:33:11 20° ESE
ARIANE 5 R/B 3.4 20:31:34 16° S 20:34:56 48° W 20:39:17 10° NNW
BREEZE-M DEB (TANK) 4.5 20:35:34 10° W 20:39:28 48° SSW 20:46:53 19° SE
Cosmos 158 Rocket 3.9 20:35:41 10° SSW 20:40:48 89° ESE 20:46:06 10° NNE
Cosmos 1812 3.0 20:39:47 10° N 20:43:35 53° ENE 20:44:56 34° SE
Cosmos 1538 Rocket 4.4 20:39:00 10° SSW 20:44:11 65° WNW 20:49:22 10° NNE
Meteor 2-3 Rocket 3.9 20:38:55 11° SSW 20:44:24 76° WNW 20:50:09 10° N
Cosmos 1862 4.0 20:44:01 31° SE 20:45:03 37° E 20:48:45 10° NNE
Cosmos 220 Rocket 4.4 20:40:55 10° NNW 20:45:09 51° ENE 20:47:03 29° ESE
Cosmos 1980 Rocket 3.6 20:42:39 10° NW 20:47:28 30° WSW 20:51:34 13° SSW
Cosmos 304 Rocket 4.1 20:44:24 10° NNW 20:49:08 59° WSW 20:51:39 26° S
USA 234 3.4 20:46:59 16° ESE 20:52:27 78° NNE 20:59:01 10° NW
Cosmos 1782 3.1 20:48:49 10° NNW 20:52:48 61° W 20:54:42 28° SSW
BREEZE-M DEB (TANK) 2.2 20:48:31 10° W 20:54:49 88° N 20:56:06 31° E
Cosmos 2322 Rocket 2.2 20:50:20 10° NNW 20:56:01 79° ENE 20:58:58 29° SE
Cosmos 1515 Rocket 3.9 20:52:54 10° N 20:57:16 51° ENE 20:58:52 34° SE
SPOT 5 3.8 20:55:38 17° SSW 20:58:22 35° W 21:02:21 10° NNW
Cosmos 1624 Rocket 4.1 20:57:37 10° NNW 21:02:49 66° ENE 21:05:14 32° SE
Cosmos 1809 Rocket 4.4 21:02:40 21° S 21:06:57 88° W 21:13:09 10° N
Cosmos 1766 Rocket 3.7 21:07:18 26° SSW 21:09:41 71° W 21:14:06 10° N
Meteor 2-6 Rocket 4.1 21:04:41 10° NNW 21:10:10 89° W 21:12:44 33° S
ALOS 2 3.9 21:10:14 22° ESE 21:11:54 29° ENE 21:15:40 10° N
ISS -3.1 21:10:01 10° WNW 21:12:58 40° SW 21:12:58 40° SW
Terra 2.9 21:12:28 20° SSW 21:15:09 37° W 21:19:34 10° NNW
Cosmos 1420 Rocket 4.3 21:11:59 10° NNW 21:17:17 60° ENE 21:19:38 32° SE
Cosmos 2237 4.2 21:11:54 10° NNW 21:17:39 88° ENE 21:20:16 34° SSE
Cosmos 1328 Rocket 4.0 21:15:27 10° NNW 21:19:49 55° W 21:21:36 32° SSW
COSMOS 2428 4.1 21:15:08 10° NNW 21:20:12 31° NE 21:24:09 15° ESE
USA 276 2.4 21:17:41 10° WNW 21:20:23 55° WSW 21:20:23 55° WSW
Cosmos 2084 4.3 21:21:57 30° E 21:21:57 30° E 21:24:57 10° ENE
COBE Rocket 3.8 21:19:40 39° SE 21:21:17 68° ENE 21:25:56 10° N
SL-16 R/B 2.6 21:16:00 10° NW 21:21:33 55° WSW 21:24:03 31° S
Cosmos 2219 Rocket 3.3 21:17:49 10° NNW 21:23:02 37° NE 21:26:26 19° ESE
Meteor 1-27 Rocket 3.9 21:18:43 10° N 21:24:16 59° ENE 21:26:39 34° SE
Cosmos 1151 Rocket 4.2 21:24:04 10° NNW 21:28:01 35° W 21:29:57 23° SW
NOSS 3-1 (C) 4.3 21:23:39 10° NW 21:30:51 64° NE 21:37:20 18° ESE
NOSS 2-1 (E) 4.2 21:33:37 28° ENE 21:33:37 28° ENE 21:35:38 10° NE
Cosmos 1452 Rocket 4.3 21:27:38 10° NNW 21:32:40 44° ENE 21:35:04 27° ESE
Meteor 2-21 Rocket 4.4 21:29:28 29° S 21:32:55 86° W 21:39:09 10° N
Meteor 1-10 Rocket 4.3 21:36:03 10° NNW 21:41:35 67° W 21:43:52 35° SSW
Cosmos 2056 Rocket 3.7 21:36:38 10° NNW 21:41:58 63° WSW 21:43:49 39° S
Cosmos 1805 Rocket 4.1 21:42:14 39° ESE 21:42:54 42° E 21:47:06 10° NNE
Cosmos 2315 Rocket 4.0 21:36:53 10° N 21:43:12 73° E 21:45:57 36° SSE
IRIDIUM 104 4.3 21:38:07 10° N 21:43:22 78° E 21:45:08 43° SSE
Cosmos 1174 3.6 21:44:05 10° NNW 21:46:54 55° NNE 21:46:54 55° NNE
IRIDIUM 114 4.3 21:47:15 10° N 21:52:31 89° W 21:54:15 44° S
Cosmos 1500 Rocket 3.5 21:53:40 52° SSW 21:54:42 85° W 21:59:09 10° N
COSMOS 2455 3.4 21:55:35 35° SE 21:56:45 39° ESE 22:02:16 10° NE
USA 267 3.4 21:54:05 10° NE 22:00:38 75° NNW 22:07:09 10° WSW
ATLAS 5 CENTAUR R/B 3.3 21:56:32 10° NNW 22:01:32 41° NE 22:07:15 11° ESE
IRIDIUM 103 4.3 21:56:26 10° N 22:01:40 75° W 22:03:23 43° SSW
NOSS 3-1 (A) 4.3 21:55:56 10° NW 22:03:07 64° NE 22:10:13 16° ESE
SL-27 R/B 2.8 22:05:12 54° W 22:05:37 59° WNW 22:09:12 10° NNE
Cosmos 1655 Rocket 4.4 22:02:09 27° SSW 22:05:41 62° WNW 22:12:03 10° N
Cosmos 2266 Rocket 4.1 22:03:04 31° SSW 22:06:08 67° WNW 22:12:20 10° N
CZ-3B R/B 2.2 21:57:39 10° WNW 22:06:21 89° SSW 22:07:15 51° ESE
Cosmos 2333 Rocket 2.1 22:01:40 10° NNW 22:07:22 84° ENE 22:09:26 41° SE
Cosmos 1833 4.2 22:06:27 36° SSW 22:08:56 87° ESE 22:14:46 10° NNE
COSMOS 2487 3.4 22:11:09 36° ENE 22:11:09 36° ENE 22:13:37 10° NE
Cosmos 2360 Rocket 2.6 22:05:11 10° NW 22:10:36 49° WSW 22:12:12 38° SSW
Cosmos 1743 Rocket 4.0 22:11:53 42° SW 22:13:07 58° WNW 22:17:32 10° N
Cosmos 2228 Rocket 3.2 22:09:40 10° NNW 22:14:03 65° W 22:14:49 54° SSW
NOSS 2-1 (C) 3.1 22:16:43 61° WNW 22:16:52 62° NW 22:20:17 10° NE
Gbstr 26 Del rocket 4.4 22:13:33 10° W 22:15:40 24° WSW 22:15:40 24° WSW
Okean 1 3.7 22:14:09 10° N 22:18:07 52° ENE 22:18:33 49° ESE
Cosmos 292 Rocket 4.3 22:16:21 10° NW 22:20:53 45° WSW 22:21:42 41° SW
Cosmos 972 Rocket 4.0 22:19:31 45° S 22:21:14 83° ESE 22:26:22 10° NNE
Meteor 1-25 Rocket 4.2 22:19:57 45° SSE 22:21:38 70° E 22:27:13 10° NNE
Cosmos 2322 3.6 22:16:04 10° NNW 22:21:49 82° WSW 22:23:41 45° SSE
NOSS 2-1 (D) 3.5 22:24:09 48° WNW 22:24:33 52° NW 22:27:57 10° NE
Cosmos 1633 Rocket 3.5 22:28:55 45° ESE 22:29:23 47° E 22:33:35 10° NNE
Cosmos 1666 Rocket 3.7 22:29:15 54° SE 22:29:46 58° E 22:34:08 10° NNE
Sich 1 3.0 22:32:08 61° SSW 22:32:50 78° W 22:37:14 10° N
Meteor 1-19 Rocket 4.2 22:27:44 10° N 22:33:30 81° E 22:35:17 45° SSE
USA 234 3.7 22:34:19 36° SSW 22:35:47 41° SW 22:41:56 10° WNW
Cosmos 2297 Rocket 3.8 22:35:02 19° ESE 22:36:03 20° E 22:40:04 10° NE
Cosmos 2237 Rocket 3.2 22:33:08 10° NNW 22:38:33 43° NE 22:42:20 19° ESE
Cosmos 2322 Rocket 3.9 22:35:38 10° WNW 22:39:22 18° W 22:40:46 17° WSW
SAR-Lupe-2 3.7 22:36:36 10° NNE 22:39:58 62° ENE 22:39:58 62° ENE
Cosmos 2227 Rocket 3.9 22:45:51 17° ESE 22:47:04 18° E 22:50:49 10° ENE
Cosmos 1048 Rocket 3.8 22:46:36 51° SSW 22:47:57 88° ESE 22:53:07 10° NNE
ALOS 2 3.5 22:47:37 33° WSW 22:48:07 34° W 22:52:10 10° NNW
Nadezhda 1 Rocket 4.2 22:42:11 10° N 22:48:36 67° ENE 22:51:20 36° SSE
Cosmos 1862 Rocket 3.4 22:46:59 10° N 22:51:23 79° E 22:52:01 63° SSE
CZ-2D R/B 4.3 22:49:11 10° ENE 22:51:49 14° E 22:54:10 11° ESE
SL-16 R/B 4.4 22:47:15 10° ESE 22:52:04 25° NE 22:56:55 10° N
Cosmos 494 Rocket 3.8 22:53:24 53° S 22:54:36 80° ESE 22:59:45 10° NNE
Meteor 2-4 Rocket 3.9 22:52:34 10° N 22:58:34 76° ENE 23:00:49 40° SSE
Thor Agena Rocket 3.4 22:54:44 10° NNE 22:59:50 82° ESE 23:01:06 51° S
Cosmos 1707 Rocket 4.0 22:57:15 10° NNW 23:01:25 46° W 23:01:53 44° WSW
Cosmos 1500 3.0 23:01:51 80° WSW 23:01:58 82° W 23:05:51 10° N
SL-16 R/B 4.0 22:57:46 10° NNW 23:02:36 28° NE 23:07:26 10° ESE
Cosmos 1302 Rocket 4.3 22:58:07 10° NNW 23:03:18 60° ENE 23:05:33 33° SE
COSMOS 2428 2.9 22:59:14 10° NW 23:04:48 56° WSW 23:06:09 44° SSW
Cosmos 1703 Rocket 4.5 23:01:24 10° N 23:05:30 40° ENE 23:06:46 32° ESE
Cosmos 2219 Rocket 2.6 23:01:47 10° NW 23:07:04 44° WSW 23:08:08 39° SW
Meteor 1-5 Rocket 4.3 23:13:59 43° SSE 23:15:50 70° E 23:21:38 10° NNE
Geosat 4.4 23:27:37 40° SW 23:28:15 42° WSW 23:33:02 10° NW
Lacrosse 5 3.0 23:29:47 27° SE 23:29:55 27° SE 23:34:10 10° ENE
Cosmos 2242 Rocket 3.6 23:29:13 10° N 23:33:38 77° ENE 23:34:40 52° SSE
USA 229 DEB 4.1 23:26:42 10° NW 23:33:46 52° WSW 23:36:51 34° S
USA 229 4.1 23:26:47 10° NW 23:33:52 53° WSW 23:37:00 34° S
Cosmos 2219 3.8 23:33:45 35° SSE 23:35:34 47° ESE 23:41:04 10° NE
ADEOS Rocket 4.2 23:32:01 10° SE 23:36:55 33° ENE 23:41:46 10° N
Cosmos 1340 Rocket 2.6 23:39:00 69° SSE 23:39:24 81° E 23:43:20 10° NNE
PSLV R/B 4.4 23:37:35 10° N 23:42:11 48° WNW 23:43:41 35° WSW
COSMOS 2455 3.6 23:38:42 21° WSW 23:42:36 48° NW 23:48:27 10° NNE
CZ-4C R/B 4.1 23:36:44 10° NW 23:43:09 42° NE 23:50:43 10° ESE
USA 267 4.3 23:37:03 10° ENE 23:43:13 46° N 23:49:23 10° WNW
Meteor 2-17 Rocket 4.4 23:43:45 38° SSW 23:46:11 75° W 23:52:15 10° N
ATLAS 5 CENTAUR R/B 2.5 23:40:58 10° NW 23:46:25 55° SW 23:48:42 36° S
CZ-4 R/B 4.0 23:41:34 10° NNE 23:46:32 67° ESE 23:48:10 42° S
Cosmos 2333 Rocket 3.9 23:47:19 10° WNW 23:50:54 17° W 23:51:25 17° WSW
Resurs 1-4 Rocket 3.0 23:46:47 10° NNE 23:51:49 41° E 23:54:09 27° SSE
Cosmos 1869 Rocket 3.9 23:51:21 41° SSE 23:52:37 59° E 23:57:03 10° NNE
Cosmos 1378 3.0 23:49:06 10° NNW 23:52:47 68° W 23:52:58 67° WSW
ARGOS Delta rocket 3.7 23:48:08 10° NNE 23:52:56 85° E 23:54:15 47° S
Cosmos 1666 3.5 23:54:41 37° W 23:55:10 39° WNW 23:58:49 10° N
